Weather History for Pueblo, CO

Change the Weather History Date:

Friday, April 19, 2013

  Actual Average Record
Temperature  
Mean Temperature 40 °F 52 °F  
Max Temperature 59 °F 68 °F 86 °F (1960)
Min Temperature 20 °F 35 °F 20 °F (2013)
Degree Days  
Heating Degree Days 25 14  
Month to date heating degree days 388 308  
Since 1 July heating degree days 5360 5313  
Cooling Degree Days 0 0  
Month to date cooling degree days 0 0  
Year to date cooling degree days 0 0  
Moisture  
Dew Point 17 °F    
Average Humidity 49    
Maximum Humidity 81    
Minimum Humidity 17    
Precipitation  
Precipitation 0.00 in 0.05 in 1.59 in (2003)
Month to date precipitation 0.17 0.80  
Year to date precipitation 1.07 2.38  
Snow  
Snow 0.00 in 0.10 in 4.00 in (1892)
Month to date snowfall 1.7 2.7  
Since 1 July snowfall 22.1 30.2  
Snow Depth 0.00 in    
Sea Level Pressure  
Sea Level Pressure 30.06 in    
Wind  
Wind Speed 8 mph (South)    
Max Wind Speed 25 mph    
Max Gust Speed 31 mph    
Visibility 10 miles    
Events      
T = Trace of Precipitation, MM = Missing Value Source: NWS Daily Summary

Daily Weather History Graph

Daily Weather History Graph

Search for Another Location

Airport:

Trip Planner

Search our weather history database for the weather conditions in past years. The results will help you decide how hot, cold, wet, or windy it might be!

Date:

Astronomy

Apr. 19, 2013 Rise Set
Actual Time 6:16 AM MDT 7:38 PM MDT
Civil Twilight 5:48 AM MDT 8:06 PM MDT
Nautical Twilight 5:15 AM MDT 8:39 PM MDT
Astronomical Twilight 4:41 AM MDT 9:14 PM MDT
Moon 1:30 PM MDT (4/19) 2:27 AM MDT (4/19)
Length of Visible Light 14h 17m
Length of Day
13h 22m
Waxing Gibbous, 62% of the Moon is Illuminated
Apr 19
Waxing Gibbous
Apr 25
Full
May 2
Last Quarter
May 9
New
May 17
First Quarter

Hourly Weather History & Observations

Time (MDT) Temp. Windchill Dew Point Humidity Pressure Visibility Wind Dir Wind Speed Gust Speed Precip Events Conditions
12:53 AM 25.0 °F 19.3 °F 19.9 °F 81% 30.25 in 10.0 mi WSW 4.6 mph - N/A   Clear
1:53 AM 24.1 °F 17.0 °F 19.0 °F 81% 30.22 in 10.0 mi SW 5.8 mph - N/A   Clear
2:53 AM 25.0 °F 20.7 °F 18.0 °F 75% 30.19 in 10.0 mi SW 3.5 mph - N/A   Clear
3:53 AM 23.0 °F - 15.1 °F 72% 30.19 in 10.0 mi Calm Calm - N/A   Clear
4:53 AM 21.0 °F 13.4 °F 14.0 °F 74% 30.21 in 10.0 mi SE 5.8 mph - N/A   Clear
5:53 AM 21.0 °F - 12.9 °F 71% 30.21 in 10.0 mi Calm Calm - N/A   Clear
6:53 AM 21.9 °F - 15.1 °F 75% 30.21 in 10.0 mi Calm Calm - N/A   Clear
7:53 AM 33.1 °F 30.0 °F 17.1 °F 52% 30.18 in 10.0 mi West 3.5 mph - N/A   Clear
8:53 AM 43.0 °F 35.7 °F 15.1 °F 32% 30.13 in 10.0 mi WNW 15.0 mph 19.6 mph N/A   Clear
9:53 AM 46.0 °F 40.6 °F 14.0 °F 28% 30.13 in 10.0 mi West 11.5 mph - N/A   Clear
10:53 AM 52.0 °F - 14.0 °F 22% 30.09 in 10.0 mi West 20.7 mph 26.5 mph N/A   Clear
11:53 AM 50.0 °F - 12.0 °F 22% 30.10 in 10.0 mi WSW 16.1 mph - N/A   Clear
12:53 PM 50.0 °F - 12.9 °F 23% 30.07 in 10.0 mi SSE 9.2 mph - N/A   Clear
1:53 PM 52.0 °F - 12.0 °F 20% 30.04 in 10.0 mi Variable 4.6 mph - N/A   Clear
2:53 PM 57.0 °F - 12.9 °F 18% 29.99 in 10.0 mi Variable 6.9 mph - N/A   Clear
3:53 PM 59.0 °F - 19.0 °F 21% 29.94 in 10.0 mi ESE 16.1 mph 20.7 mph N/A   Clear
4:53 PM 59.0 °F - 18.0 °F 20% 29.92 in 10.0 mi SE 9.2 mph - N/A   Clear
5:53 PM 57.9 °F - 18.0 °F 21% 29.90 in 10.0 mi East 12.7 mph - N/A   Clear
6:53 PM 55.9 °F - 19.9 °F 25% 29.91 in 10.0 mi ESE 13.8 mph - N/A   Clear
7:53 PM 51.1 °F - 21.0 °F 31% 29.90 in 10.0 mi East 9.2 mph - N/A   Clear
8:53 PM 46.9 °F - 21.9 °F 37% 29.91 in 10.0 mi ENE 11.5 mph - N/A   Clear
9:53 PM 43.0 °F 40.3 °F 21.0 °F 42% 29.92 in 10.0 mi NE 4.6 mph - N/A   Clear
10:53 PM 44.1 °F 41.5 °F 21.9 °F 42% 29.90 in 10.0 mi North 4.6 mph - N/A   Partly Cloudy
11:53 PM 42.1 °F 37.1 °F 21.9 °F 45% 29.91 in 10.0 mi North 8.1 mph - N/A   Overcast